Location: Chiroubles
(46.1812°N, 4.6660°E)
Time: 11:57:24
(UTC+00:00)

N. Korean satellite - Pass Details

Date: 04 November 2020
Orbit: 453 x 503 km, 97.2° (Epoch: 03 December)

Event Time Altitude Azimuth Distance (km) Brightness Sun altitude
Rises 05:01:09 0° 16° (NNE) 2,478 10.3 -15.2°
Reaches altitude 10° 05:03:13 10° 22° (NNE) 1,600 9.4 -14.8°
Maximum altitude 05:06:35 52° 100° (E) 574 7.3 -14.3°
Drops below altitude 10° 05:09:56 10° 178° (S) 1,598 9.3 -13.7°
Sets 05:12:00 0° 183° (S) 2,473 10.2 -13.3°
